This demonstration page uses our WeatherBlox Daily Observations layout. Learn more.

Left ArrowRight Arrow

39.51506, -84.39828

Hourly Observations for August 4, 2020

Temp ( °F °C ) Dew Point ( °F °C ) Humidity (%) Winds ( mph kmh ) Pressure ( in mb ) Visibility ( mi km ) Precip ( " mm )
12:15 am 00:15 Mostly Cloudy 66 19 66 19 100 100 Calm 29.97 1015 10 16.0934 0 0
12:35 am 00:35 Clear 64 18 N/A N/A Calm 29.96 1015 7 11.26538 0 0
12:55 am 00:55 Clear 64 18 N/A N/A Calm 29.96 1015 10 16.0934 0 0
1:15 am 01:15 Hazy 64 18 N/A N/A Calm 29.95 1014 7 11.26538 0 0
1:35 am 01:35 Clear 63 17 N/A N/A Calm 29.95 1014 N/A 0 0
1:55 am 01:55 Clear 64 18 N/A N/A Calm 29.95 1014 10 16.0934 0 0
2:15 am 02:15 Clear 64 18 N/A N/A Calm 29.95 1014 10 16.0934 0 0
2:35 am 02:35 Hazy 63 17 N/A N/A Calm 29.93 1014 7 11.26538 0 0
2:55 am 02:55 Clear 64 18 N/A N/A Calm 29.93 1014 10 16.0934 0 0
3:15 am 03:15 Clear 63 17 N/A N/A Calm 29.92 1013 10 16.0934 0 0
3:35 am 03:35 Clear 63 17 N/A N/A Calm 29.92 1013 10 16.0934 0 0
3:55 am 03:55 Clear 63 17 N/A N/A Calm 29.92 1013 10 16.0934 0 0
4:15 am 04:15 Partly Cloudy 63 17.3 63 17.1 99 99 Calm 29.92 1013 10 16.0934 0 0
4:35 am 04:35 Cloudy 64 17.9 64 17.8 99 99 Calm 29.92 1013 10 16.0934 0 0
4:55 am 04:55 Mostly Cloudy 65 18.2 65 18.1 99 99 Calm 29.91 1013 7 11.26538 0 0
5:15 am 05:15 Clear with Mist and Fog 64 17.7 64 17.6 99 99 Calm 29.92 1013 7 11.26538 0 0
5:35 am 05:35 Clear 64 17.8 64 17.7 99 99 Calm 29.92 1013 7 11.26538 0 0
5:55 am 05:55 Clear 64 17.7 64 17.6 99 99 Calm 29.93 1014 7 11.26538 0 0
6:15 am 06:15 Hazy 64 18 N/A N/A WSW 3 6 29.94 1014 5 8.0467 0 0
6:35 am 06:35 Hazy 64 18 N/A N/A Calm 29.94 1014 7 11.26538 0 0
6:55 am 06:55 Cloudy with Haze 64 18 N/A N/A Calm 29.94 1014 7 11.26538 0 0
7:15 am 07:15 Cloudy with Haze 64 18 N/A N/A Calm 29.95 1014 7 11.26538 0 0
7:35 am 07:35 Partly Cloudy 64 18 64 18 100 100 Calm 29.95 1014 7 11.26538 0 0
7:55 am 07:55 Sunny 65 18.3 65 18.2 99 99 Calm 29.95 1014 10 16.0934 0 0
8:15 am 08:15 Partly Cloudy 66 18.8 65 18.4 98 98 Calm 29.95 1014 10 16.0934 0 0
8:35 am 08:35 Mostly Cloudy 66 19 65 18.2 95 95 Calm 29.95 1014 10 16.0934 0 0
8:55 am 08:55 Mostly Cloudy 67 19.2 65 18.3 95 95 NNW 3 6 29.95 1014 10 16.0934 0 0
9:15 am 09:15 Cloudy 67 19.5 65 18.5 94 94 N 5 7 29.96 1014 10 16.0934 0 0
9:35 am 09:35 Cloudy 67 19.5 65 18.5 94 94 NNW 7 11 29.96 1014 10 16.0934 0 0
9:55 am 09:55 Cloudy 67 19.7 65 18.6 93 93 N 6 9 29.96 1014 10 16.0934 0 0
10:15 am 10:15 Cloudy 67 19.7 65 18.5 93 93 NNW 5 7 29.97 1015 10 16.0934 0 0
10:35 am 10:35 Cloudy 68 20 66 18.8 93 93 Calm 29.96 1015 10 16.0934 0 0
10:55 am 10:55 Cloudy 68 20.1 65 18.4 90 90 WNW 5 7 29.97 1015 10 16.0934 0 0
11:15 am 11:15 Cloudy 69 20.4 65 18.4 88 88 Calm 29.98 1015 10 16.0934 0 0
11:35 am 11:35 Cloudy 69 20.6 65 18.6 88 88 WNW 3 6 29.98 1015 10 16.0934 0 0
11:55 am 11:55 Mostly Cloudy 71 21.9 67 19.2 85 85 NW 8 13 29.97 1015 10 16.0934 0 0
12:15 pm 12:15 Mostly Cloudy 72 22 66 18.8 82 82 WNW 7 11 29.97 1015 10 16.0934 0 0
12:35 pm 12:35 Partly Cloudy 73 22.8 64 18 74 74 NW 3 6 29.97 1015 10 16.0934 0 0
12:55 pm 12:55 Mostly Cloudy 73 22.6 65 18.3 77 77 WNW 6 9 29.97 1015 10 16.0934 0 0
1:15 pm 13:15 Cloudy 73 23 64 17.7 72 72 WNW 6 9 29.97 1015 10 16.0934 0 0
1:35 pm 13:35 Cloudy 74 23.1 64 17.6 71 71 WNW 5 7 29.97 1015 10 16.0934 0 0
1:55 pm 13:55 Partly Cloudy 75 24.1 65 18.1 69 69 W 5 7 29.96 1014 10 16.0934 0 0
2:15 pm 14:15 Cloudy 73 23 64 17.6 72 72 WNW 8 13 29.97 1015 10 16.0934 0 0
2:35 pm 14:35 Mostly Cloudy 77 24.8 64 17.7 65 65 WNW 6 9 29.96 1015 10 16.0934 0 0
2:55 pm 14:55 Mostly Cloudy 77 25 63 17.2 62 62 W 9 15 29.95 1014 10 16.0934 0 0
3:15 pm 15:15 Mostly Cloudy 77 24.8 62 16.5 60 60 W 7 11 29.96 1015 10 16.0934 0 0
3:35 pm 15:35 Mostly Cloudy 76 24.2 62 16.8 63 63 NW 13 20 29.96 1015 10 16.0934 0 0
3:55 pm 15:55 Cloudy with Light Rain 73 22.7 64 17.9 74 74 W 5 7 29.97 1015 10 16.0934 0 0
4:15 pm 16:15 Partly Cloudy 77 24.9 63 17.3 63 63 W 8 13 29.96 1015 10 16.0934 0 0
4:35 pm 16:35 Mostly Cloudy 78 25.4 64 17.6 62 62 NW 10 17 29.96 1015 10 16.0934 0 0
4:55 pm 16:55 Mostly Cloudy 75 24.1 62 16.4 62 62 WNW 8 13 29.97 1015 10 16.0934 0 0
5:15 pm 17:15 Cloudy 75 24.1 62 16.7 63 63 NW 15 24 29.97 1015 10 16.0934 0 0
5:35 pm 17:35 Mostly Cloudy 75 24 61 15.9 61 61 W 10 17 29.97 1015 10 16.0934 0 0
5:55 pm 17:55 Cloudy 75 23.9 62 16.6 64 64 NW 8 13 29.98 1015 10 16.0934 0 0
6:15 pm 18:15 Cloudy 75 24.1 61 16.2 61 61 WNW 8 13 29.98 1015 10 16.0934 0 0
6:35 pm 18:35 Mostly Cloudy 74 23.5 60 15.6 61 61 WNW 8 13 29.98 1015 10 16.0934 0 0
6:55 pm 18:55 Cloudy 75 23.9 62 16.4 63 63 WNW 8 13 29.98 1015 10 16.0934 0 0
7:15 pm 19:15 Partly Cloudy 74 23.5 60 15.4 61 61 NNW 12 19 29.98 1015 10 16.0934 0 0
7:35 pm 19:35 Sunny 73 22.8 60 15.5 64 64 NNW 6 9 29.98 1015 10 16.0934 0 0
7:55 pm 19:55 Sunny 72 22.2 60 15.6 66 66 NNW 3 6 29.99 1016 10 16.0934 0 0
8:15 pm 20:15 Sunny 70 21.2 60 15.6 71 71 Calm 29.99 1016 10 16.0934 0 0
8:35 pm 20:35 Mostly Cloudy 70 20.9 60 15.6 72 72 NNW 3 6 30 1016 10 16.0934 0 0
8:55 pm 20:55 Partly Cloudy 68 20.2 61 15.9 76 76 Calm 30 1016 10 16.0934 0 0
9:15 pm 21:15 Clear 67 19.6 61 16 80 80 Calm 30.02 1016 10 16.0934 0 0
9:35 pm 21:35 Clear 65 18.6 62 16.5 88 88 Calm 30.03 1017 10 16.0934 0 0
9:55 pm 21:55 Clear 65 18.6 62 16.4 87 87 NNW 3 6 30.04 1017 10 16.0934 0 0
10:15 pm 22:15 Clear 64 18 60 15.5 85 85 N 3 6 30.05 1018 10 16.0934 0 0
10:35 pm 22:35 Clear 63 17.4 60 15.4 88 88 Calm 30.05 1018 10 16.0934 0 0
10:55 pm 22:55 Clear 63 17.4 59 15 86 86 N 3 6 30.05 1018 10 16.0934 0 0
11:15 pm 23:15 Clear 62 16.9 59 14.8 88 88 Calm 30.06 1018 10 16.0934 0 0
11:35 pm 23:35 Clear 62 16.5 59 14.8 90 90 Calm 30.06 1018 10 16.0934 0 0
11:55 pm 23:55 Clear 61 16.3 59 14.8 91 91 Calm 30.06 1018 10 16.0934 0 0

Powered by AerisWeather